sat.trackr.live / text

‹ back to catalog

STARLINK-32339

NORAD 61640 · 2024-191V

PAYLOAD ACTIVE UNKNOWN

§ Identity

Operator
Country
US
Launch date
2024-10-23
Launch site
AFETR
Launch vehicle
Mass (kg)
RCS (m²)

Purposes: comms

External: N2YO · Heavens-Above · Gunter

§ Orbital elements

Epoch: 2026-05-24T22:48:12.119328Z

Period
94.27 min
Inclination
43.0036°
Eccentricity
0.0001082
Mean motion
15.27576967 rev/d
Perigee alt
482.3 km
Apogee alt
483.8 km
Semi-major
6,861.2 km
B*
2.3764e-5
RAAN
83.4602°
Arg perigee
270.3410°
Mean anomaly
89.7317°
Rev number
8,919

§ Raw data

STARLINK-323391 61640U 24191V   26144.95014027  .00000392  00000+0  23764-4 0  99982 61640  43.0036  83.4602 0001082 270.3410  89.7317 15.27576967 89193

JSON: /api/v1/satellites/61640 · /tle

For live sub-satellite position, see the globe view (requires WebGL).

§ Visibility from observer

Set your observer location to see the next 7 days of passes ≥ 10°. The values pass through the URL so the page stays shareable.

No JS? Fill the form by hand. The geolocation button needs JavaScript.